Tracking 19283 objects as of 17-Nov-2018
HD Live streaming from Space Station
objects crossing your sky now

RELAY 2

Track RELAY 2 now!
10-day predictions
RELAY 2 is classified as:


NORAD ID: 737
Int'l Code: 1964-003A
Perigee: 1,878.2 km
Apogee: 7,636.5 km
Inclination: 46.4 °
Period: 194.7 minutes
Semi major axis: 11128 km
RCS: 0.7112 m2 (medium)
Launch date: January 21, 1964
Source: United States (US)
Launch site: AIR FORCE EASTERN TEST RANGE (AFETR)
aabbcc
Your satellite tracking list
Your tracking list is empty




NASA's NSSDC Master Catalog

Two Line Element Set (TLE):
1   737U 64003A   18320.14250098 -.00000020 +00000-0 +00000-0 0  9996
2   737 046.4439 222.8341 2587183 156.4313 218.0081 07.39531318481157
Source of the keplerian elements: AFSPC